Location: Detroit
(42.3310°N, 83.0460°W)
Time: 19:55:49
(UTC-04:00)

A-11 Canister half - Pass Details

Date: 08 February 2023
Orbit: 1526 x 1682 km, 47.3° (Epoch: 29 March)

Event Time Altitude Azimuth Distance (km) Brightness Sun altitude
Rises 03:54:43 0° 213° (SSW) 4,696 - -41.3°
Reaches altitude 10° 03:57:56 10° 208° (SSW) 3,702 - -40.8°
Exits shadow 04:06:05 46° 148° (SSE) 1,960 9.5 -39.4°
Maximum altitude 04:06:38 46° 138° (SE) 1,949 9.5 -39.3°
Drops below altitude 10° 04:15:20 10° 69° (ENE) 3,704 11.7 -37.7°
Sets 04:18:32 0° 64° (ENE) 4,699 12.5 -37.1°
